This is the latest recevied weather packets stored in our database for station/object KI2K. If no packets are shown the sender has not sent any weather packets the latest 10 day(s).
| Time | Temp. | Humidity | Pressure | Rain* | Wind** | Luminosity | Snow |
|---|---|---|---|---|---|---|---|
| 1777594636 | 13.33° C | 60% | 1013.7 hPa | 0 mm | - | 4 W/m² | - |
| 1777594333 | 13.89° C | 62% | 1013.5 hPa | 0 mm | - | 5 W/m² | - |
| 1777594029 | 13.89° C | 59% | 1013.3 hPa | 0 mm | - | 7 W/m² | - |
| 1777593725 | 13.89° C | 58% | 1013.6 hPa | 0 mm | - | 11 W/m² | - |
| 1777593421 | 13.89° C | 55% | 1013.5 hPa | 0 mm | - | 18 W/m² | - |
| 1777593120 | 14.44° C | 54% | 1013.5 hPa | 0 mm | - | 24 W/m² | - |
| 1777592819 | 14.44° C | 53% | 1013.5 hPa | 0 mm | - | 30 W/m² | - |
| 1777592516 | 14.44° C | 53% | 1013.3 hPa | 0 mm | - | 41 W/m² | - |
| 1777592211 | 14.44° C | 54% | 1013.5 hPa | 0 mm | - | 36 W/m² | - |
| 1777591908 | 14.44° C | 54% | 1013.5 hPa | 0 mm | - | 43 W/m² | - |
| 1777591604 | 14.44° C | 53% | 1013.6 hPa | 0 mm | - | 46 W/m² | - |
| 1777591300 | 15° C | 51% | 1013.5 hPa | 0 mm | - | 49 W/m² | - |
| 1777590996 | 15° C | 51% | 1013.7 hPa | 0 mm | - | 73 W/m² | - |
| 1777590691 | 15° C | 52% | 1013.7 hPa | 0 mm | - | 58 W/m² | - |
| 1777590388 | 15° C | 51% | 1013.6 hPa | 0 mm | - | 58 W/m² | - |
| 1777590085 | 15° C | 52% | 1013.7 hPa | 0 mm | - | 69 W/m² | - |
| 1777589781 | 15° C | 51% | 1014 hPa | 0 mm | - | 72 W/m² | - |
| 1777589481 | 15° C | 51% | 1013.9 hPa | 0 mm | - | 81 W/m² | - |
| 1777589176 | 15° C | 52% | 1013.9 hPa | 0 mm | - | 102 W/m² | - |
| 1777588872 | 15° C | 51% | 1014.1 hPa | 0 mm | - | 80 W/m² | - |
| 1777588568 | 15° C | 51% | 1013.9 hPa | 0 mm | - | 70 W/m² | - |
| 1777588264 | 15° C | 52% | 1014 hPa | 0 mm | - | 71 W/m² | - |
| 1777587959 | 15° C | 51% | 1014 hPa | 0 mm | - | 70 W/m² | - |
| 1777587655 | 15° C | 51% | 1014.4 hPa | 0 mm | - | 87 W/m² | - |
| 1777587354 | 15° C | 49% | 1014.1 hPa | 0 mm | - | 124 W/m² | - |
* Rain latest hour (hover to see other rain measurements)
** Current wind speed in m/s (hover to see current wind gust speed)